Date String (YYYY-MM-DD hh:mm:ss) UTC,Instrument flags,Ambient pressure (hPa),Sample flow (lpm),Bypass flow (lpm),Sample temperature (°C),Ambient temperature (°C),ASC tube jacket temperature (°C),LED temperature (°C),Box temperature (°C),Sample RH (%),Span deviation,Mass concentration (μg/m³),Mass concentration (μg/m³),Mass concentration (μg/m³)
DateTimeUTC,F1_M11,P_M11,Q1_M11,Q2_M11,T1_M11,T2_M11,T3_M11,T4_M11,T5_M11,U1_M11,ZSPAN_M11,X0_M11,X2_M11,X1_M11
2022-04-30 02:00:00,,0820.4,5.01,0.00,24.2,23.1,00.0,33.2,25.9,10.3,0000.0,0007.63,0002.16,0001.24
2022-04-30 02:01:00,,0820.4,4.98,0.00,24.2,23.1,00.0,33.2,25.9,10.1,0000.0,0007.66,0002.24,0001.23
2022-04-30 02:02:00,,0820.5,5.02,0.00,24.2,23.1,00.0,33.2,25.9,10.2,0000.0,0007.65,0002.27,0001.24
2022-04-30 02:03:00,,0820.6,5.01,0.00,24.2,23.1,00.0,33.2,25.9,10.3,0000.0,0006.85,0002.26,0001.24
2022-04-30 02:04:00,,0820.7,5.00,0.00,24.2,23.1,00.0,33.2,25.9,10.3,0000.0,0005.69,0002.22,0001.24
2022-04-30 02:05:00,,0820.6,4.99,0.00,24.2,23.1,00.0,33.2,25.9,10.2,0000.0,0005.55,0002.19,0001.23
2022-04-30 02:06:00,,0820.6,5.00,0.00,24.1,23.1,00.0,33.2,25.9,10.2,0000.0,0005.35,0002.17,0001.23
2022-04-30 02:07:00,,0820.6,5.01,0.00,24.1,23.1,00.0,33.2,25.9,10.1,0000.0,0005.61,0002.21,0001.23
2022-04-30 02:08:00,,0820.7,5.00,0.00,24.1,23.1,00.0,33.2,25.9,10.1,0000.0,0007.39,0002.23,0001.23
2022-04-30 02:09:00,,0820.7,4.99,0.00,24.1,23.1,00.0,33.2,25.9,10.2,0000.0,0007.88,0002.22,0001.22
2022-04-30 02:10:00,,0820.7,5.00,0.00,24.1,23.1,00.0,33.2,25.9,10.2,0000.0,0007.64,0002.22,0001.22
2022-04-30 02:11:00,,0820.6,5.00,0.00,24.1,23.1,00.0,33.2,25.9,10.3,0000.0,0006.88,0002.15,0001.22
2022-04-30 02:12:00,,0820.7,5.01,0.00,24.1,23.0,00.0,33.1,25.9,10.3,0000.0,0006.58,0002.05,0001.21
2022-04-30 02:13:00,,0820.7,4.99,0.00,24.1,23.0,00.0,33.1,25.8,10.3,0000.0,0006.90,0002.07,0001.20
2022-04-30 02:14:00,,0820.5,5.00,0.00,24.1,23.0,00.0,33.1,25.7,10.3,0000.0,0007.03,0002.11,0001.20
2022-04-30 02:15:00,,0820.5,4.99,0.00,24.0,23.0,00.0,33.1,25.8,10.3,0000.0,0007.37,0002.07,0001.20
2022-04-30 02:16:00,,0820.6,5.02,0.00,24.0,22.9,00.0,33.1,25.7,10.4,0000.0,0007.83,0002.08,0001.20
2022-04-30 02:17:00,,0820.4,5.00,0.00,24.0,22.9,00.0,33.1,25.7,10.5,0000.0,0007.86,0002.11,0001.19
2022-04-30 02:18:00,,0820.5,4.99,0.00,24.0,22.9,00.0,33.1,25.7,10.5,0000.0,0007.71,0002.06,0001.18
2022-04-30 02:19:00,,0820.4,5.00,0.00,24.0,22.9,00.0,33.1,25.7,10.6,0000.0,0006.07,0002.02,0001.17
2022-04-30 02:20:00,,0820.3,5.01,0.00,24.0,22.8,00.0,33.0,25.7,10.7,0000.0,0005.45,0002.04,0001.18
2022-04-30 02:21:00,,0820.4,4.99,0.00,24.0,22.8,00.0,33.0,25.7,10.8,0000.0,0005.50,0002.12,0001.19
2022-04-30 02:22:00,,0820.5,5.01,0.00,24.0,22.8,00.0,33.0,25.7,10.8,0000.0,0005.66,0002.17,0001.19
2022-04-30 02:23:00,,0820.7,4.99,0.00,24.0,22.8,00.0,33.0,25.7,10.9,0000.0,0005.92,0002.24,0001.20
2022-04-30 02:24:00,,0820.6,5.01,0.00,23.9,22.8,00.0,33.0,25.7,10.9,0000.0,0005.71,0002.21,0001.20
2022-04-30 02:25:00,,0820.7,4.99,0.00,23.9,22.8,00.0,33.0,25.6,11.0,0000.0,0005.91,0002.20,0001.20
2022-04-30 02:26:00,,0820.5,5.01,0.00,23.9,22.8,00.0,33.0,25.6,11.0,0000.0,0006.75,0002.24,0001.21
2022-04-30 02:27:00,,0820.6,4.99,0.00,23.9,22.8,00.0,33.0,25.6,11.0,0000.0,0005.85,0002.24,0001.23
2022-04-30 02:28:00,,0820.8,5.00,0.00,23.9,22.8,00.0,32.9,25.5,11.0,0000.0,0005.82,0002.24,0001.24
2022-04-30 02:29:00,,0820.8,5.00,0.00,23.8,22.8,00.0,32.9,25.5,11.0,0000.0,0005.92,0002.23,0001.24
2022-04-30 02:30:00,,0820.8,4.99,0.00,23.8,22.8,00.0,32.9,25.5,10.9,0000.0,0006.11,0002.26,0001.25
2022-04-30 02:31:00,,0820.7,5.00,0.00,23.8,22.8,00.0,32.9,25.5,10.9,0000.0,0005.99,0002.30,0001.27
2022-04-30 02:32:00,,0820.7,5.01,0.00,23.8,22.8,00.0,32.9,25.5,10.8,0000.0,0007.50,0002.28,0001.27
2022-04-30 02:33:00,,0820.7,4.99,0.00,23.8,22.7,00.0,32.9,25.5,10.8,0000.0,0008.73,0002.22,0001.28
2022-04-30 02:34:00,,0820.7,5.00,0.00,23.8,22.7,00.0,32.9,25.5,10.8,0000.0,0008.62,0002.16,0001.29
2022-04-30 02:35:00,,0820.5,5.01,0.00,23.8,22.7,00.0,32.9,25.5,10.8,0000.0,0008.72,0002.18,0001.29
2022-04-30 02:36:00,,0820.7,5.00,0.00,23.8,22.7,00.0,32.8,25.5,10.8,0000.0,0008.77,0002.18,0001.29
2022-04-30 02:37:00,,0820.7,4.99,0.00,23.7,22.7,00.0,32.8,25.5,10.9,0000.0,0007.99,0002.10,0001.28
2022-04-30 02:38:00,,0820.8,4.99,0.00,23.7,22.7,00.0,32.8,25.5,10.9,0000.0,0008.09,0002.12,0001.27
2022-04-30 02:39:00,,0820.9,5.00,0.00,23.7,22.7,00.0,32.8,25.5,10.9,0000.0,0008.12,0002.10,0001.27
2022-04-30 02:40:00,,0820.9,4.99,0.00,23.7,22.7,00.0,32.8,25.5,10.9,0000.0,0008.06,0002.09,0001.27
2022-04-30 02:41:00,,0820.9,4.99,0.00,23.7,22.7,00.0,32.8,25.5,11.0,0000.0,0008.06,0002.11,0001.27
2022-04-30 02:42:00,,0820.9,5.01,0.00,23.7,22.7,00.0,32.8,25.5,10.9,0000.0,0008.10,0002.12,0001.25
2022-04-30 02:43:00,,0821.0,5.01,0.00,23.7,22.6,00.0,32.8,25.4,11.0,0000.0,0006.36,0002.08,0001.25
2022-04-30 02:44:00,,0821.0,5.00,0.00,23.7,22.6,00.0,32.8,25.4,11.0,0000.0,0004.52,0002.07,0001.24
2022-04-30 02:45:00,,0821.0,4.99,0.00,23.7,22.6,00.0,32.8,25.4,11.0,0000.0,0004.53,0002.07,0001.23
2022-04-30 02:46:00,,0821.1,5.00,0.00,23.7,22.6,00.0,32.7,25.5,10.9,0000.0,0004.20,0002.05,0001.24
2022-04-30 02:47:00,,0821.1,5.00,0.00,23.7,22.5,00.0,32.7,25.3,11.0,0000.0,0004.02,0002.04,0001.25
2022-04-30 02:48:00,,0821.0,5.00,0.00,23.7,22.5,00.0,32.7,25.3,10.8,0000.0,0004.36,0002.06,0001.25
2022-04-30 02:49:00,,0821.0,5.00,0.00,23.7,22.6,00.0,32.7,25.3,10.7,0000.0,0004.57,0002.07,0001.25
2022-04-30 02:50:00,,0821.1,4.99,0.00,23.7,22.5,00.0,32.7,25.3,10.7,0000.0,0004.76,0002.13,0001.25
2022-04-30 02:51:00,,0821.1,5.00,0.00,23.7,22.4,00.0,32.7,25.3,10.6,0000.0,0005.00,0002.17,0001.25
2022-04-30 02:52:00,,0821.1,5.00,0.00,23.7,22.5,00.0,32.7,25.4,10.4,0000.0,0004.87,0002.16,0001.26
2022-04-30 02:53:00,,0821.0,5.01,0.00,23.7,22.5,00.0,32.7,25.4,10.3,0000.0,0004.78,0002.13,0001.26
2022-04-30 02:54:00,,0821.0,4.99,0.00,23.7,22.5,00.0,32.7,25.4,10.1,0000.0,0005.01,0002.20,0001.26
2022-04-30 02:55:00,,0820.9,5.00,0.00,23.6,22.5,00.0,32.7,25.4,10.1,0000.0,0005.21,0002.25,0001.28
2022-04-30 02:56:00,,0821.0,5.01,0.00,23.6,22.5,00.0,32.7,25.4,10.0,0000.0,0005.58,0002.29,0001.28
2022-04-30 02:57:00,,0821.0,5.00,0.00,23.6,22.5,00.0,32.7,25.3,10.1,0000.0,0006.26,0002.28,0001.27
2022-04-30 02:58:00,,0821.0,4.99,0.00,23.6,22.5,00.0,32.6,25.3,10.2,0000.0,0006.26,0002.25,0001.26
2022-04-30 02:59:00,,0821.1,5.00,0.00,23.6,22.5,00.0,32.6,25.2,10.2,0000.0,0006.17,0002.27,0001.25
